Retour au catalogue

CZ-6A DEB

ActifSSO
NORAD 58434·DEBRIS·🇨🇳 China

Lancé Nov 11, 2022 depuis Taiyuan Satellite Launch Center

Loading…

Prochains Passages (prochaines 24 heures)

TLE

VieillissantSource: Space-Track

Époque: Sep 8, 2026, 20:49 UTC

1 58434U 22151AJC 26251.86784138  .00000105  00000-0  52274-4 0  9996
2 58434  98.7016 294.2072 0105020 171.7498 188.5443 14.32673600174656

Suivez CZ-6A DEB en temps réel avec AllMySat

Download on the App Store